Weather observations for the past three days for
Colorado Air and Space Port Airport
| Date | Time (mdt) | Wind (mph) | Vis. (mi.) | Weather | Sky Cond. | Temperature (ºF) | Relative Humidity | Wind Chill (°F) | Heat Index (°F) | Pressure | Precipitation (in) | ||||||
|---|---|---|---|---|---|---|---|---|---|---|---|---|---|---|---|---|---|
| Air | Dwpt | 6 hour | altimeter (in) | sea level (mb) | 1 hr | 3 hr | 6 hr | ||||||||||
| Max. | Min. | ||||||||||||||||
| 02 | 08:47 | SW 9 | 10.00 | Fair | CLR | 55.4 | 19.4 | 24% | 30.22 | 0.0 | |||||||
| 02 | 06:47 | SW 9 | 10.00 | Fair | CLR | 42.8 | 23 | 46% | 38 | 30.2 | 0.0 | ||||||
| 02 | 06:35 | SW 8 | 10.00 | Fair | CLR | 41 | 23 | 49% | 36 | 30.2 | 0.0 | ||||||
| 02 | 06:15 | SW 8 | 10.00 | Fair | CLR | 40.1 | 23 | 51% | 35 | 30.2 | 0.0 | ||||||
| 02 | 05:55 | SW 7 | 10.00 | Fair | CLR | 40.1 | 22.8 | 46.8 | 40.1 | 50% | 36 | 30.2 | 0.0 | ||||
| 02 | 05:35 | SW 9 | 10.00 | Fair | CLR | 40.1 | 22.8 | 50% | 35 | 30.19 | 0.0 | ||||||
| 02 | 05:15 | SW 10 | 10.00 | Fair | CLR | 41.2 | 22.6 | 48% | 36 | 30.19 | 0.0 | ||||||
| 02 | 04:55 | SW 10 | 10.00 | Fair | CLR | 41.7 | 22.5 | 46% | 36 | 30.19 | 0.0 | ||||||
| 02 | 04:35 | SW 12 | 10.00 | Fair | CLR | 42.3 | 22.1 | 45% | 36 | 30.19 | 0.0 | ||||||
| 02 | 04:15 | SW 12 | 10.00 | Fair | CLR | 42.1 | 22.6 | 46% | 36 | 30.19 | 0.0 | ||||||
| 02 | 03:55 | SW 8 | 10.00 | Fair | CLR | 41.9 | 22.8 | 47% | 37 | 30.18 | 0.0 | ||||||
| 02 | 03:35 | SW 8 | 10.00 | Fair | CLR | 42.4 | 22.8 | 46% | 38 | 30.18 | 0.0 | ||||||
| 02 | 03:15 | SW 12 | 10.00 | Fair | CLR | 43.3 | 23 | 45% | 38 | 30.18 | 0.0 | ||||||
| 02 | 02:55 | SW 10 | 10.00 | Fair | CLR | 43.5 | 23 | 44% | 38 | 30.18 | 0.0 | ||||||
| 02 | 02:35 | SW 9 | 10.00 | Fair | CLR | 43.7 | 22.6 | 43% | 39 | 30.18 | 0.0 | ||||||
| 02 | 02:15 | SW 10 | 10.00 | Fair | CLR | 43.7 | 22.3 | 43% | 39 | 30.18 | 0.0 | ||||||
| 02 | 01:55 | SW 9 | 10.00 | Fair | CLR | 45.1 | 21.2 | 39% | 41 | 30.19 | 0.0 | ||||||
| 02 | 01:35 | SW 9 | 10.00 | Fair | CLR | 45.3 | 21.4 | 39% | 41 | 30.19 | 0.0 | ||||||
| 02 | 01:15 | SW 9 | 10.00 | Fair | CLR | 44.6 | 22.1 | 41% | 40 | 30.19 | 0.0 | ||||||
| 02 | 00:55 | SW 9 | 10.00 | Partly Cloudy | SCT100 | 43.9 | 21.7 | 41% | 39 | 30.19 | 0.0 | ||||||
| 02 | 00:35 | S 8 | 10.00 | Overcast | OVC100 | 44.4 | 21.6 | 40% | 40 | 30.19 | 0.0 | ||||||
| 02 | 00:15 | S 9 | 10.00 | Overcast | OVC100 | 44.2 | 23 | 43% | 40 | 30.19 | 0.0 | ||||||
| 01 | 23:55 | S 9 | 10.00 | Overcast | OVC100 | 44.4 | 23.2 | 63 | 42.1 | 43% | 40 | 30.19 | 0.0 | ||||
| 01 | 23:35 | S 9 | 10.00 | Overcast | OVC100 | 43.7 | 22.8 | 44% | 39 | 30.19 | 0.0 | ||||||
| 01 | 23:15 | S 7 | 10.00 | Mostly Cloudy | BKN100 | 44.6 | 19.2 | 36% | 41 | 30.19 | 0.0 | ||||||
| 01 | 22:55 | SE 5 | 10.00 | Partly Cloudy | SCT110 | 43.2 | 20.7 | 41% | 41 | 30.18 | 0.0 | ||||||
| 01 | 22:35 | SE 6 | 10.00 | Partly Cloudy | SCT100 | 43 | 20.5 | 41% | 40 | 30.18 | 0.0 | ||||||
| 01 | 22:15 | SE 5 | 10.00 | Mostly Cloudy | BKN110 | 44.4 | 18.5 | 35% | 42 | 30.18 | 0.0 | ||||||
| 01 | 21:55 | E 3 | 10.00 | Partly Cloudy | SCT110 | 46.9 | 16.2 | 29% | 30.18 | 0.0 | |||||||
| 01 | 21:35 | E 5 | 10.00 | Fair | CLR | 50.4 | 14 | 23% | 30.17 | 0.0 | |||||||
| 01 | 21:15 | E 3 | 10.00 | Fair | CLR | 51.4 | 12.4 | 21% | 30.16 | 0.0 | |||||||
| 01 | 20:47 | NE 3 | 10.00 | Fair | CLR | 53.6 | 12.2 | 19% | 30.15 | 0.0 | |||||||
| 01 | 14:47 | W 8 | 10.00 | Fair | CLR | 60.8 | 10.4 | 13% | 30.13 | 0.0 | |||||||
| 01 | 13:47 | NW 12 G 16 | 10.00 | Fair | CLR | 60.8 | 12.2 | 15% | 30.14 | 0.0 | |||||||
| 01 | 12:47 | NE 6 G 15 | 10.00 | Partly Cloudy | SCT075 | 57.2 | 15.8 | 20% | 30.15 | 0.0 | |||||||
| 01 | 11:47 | W 5 | 10.00 | Fair | CLR | 57.2 | 21.2 | 25% | 30.16 | 0.0 | |||||||
| 01 | 10:47 | N 5 | 10.00 | Fair | CLR | 51.8 | 26.6 | 38% | 30.18 | 0.0 | |||||||
| 01 | 09:47 | N 5 | 10.00 | Fair | CLR | 51.8 | 26.6 | 38% | 30.18 | 0.0 | |||||||
| 01 | 08:47 | W 8 | 10.00 | Fair | CLR | 48.2 | 35.6 | 62% | 45 | 30.18 | 0.0 | ||||||
| 01 | 07:47 | SW 8 | 10.00 | Fair | CLR | 44.6 | 35.6 | 71% | 41 | 30.17 | 0.0 | ||||||
| 01 | 06:47 | SW 7 | 10.00 | Fair | CLR | 39.2 | 33.8 | 81% | 35 | 30.16 | 0.0 | ||||||
| 01 | 06:35 | SW 7 | 10.00 | Fair | CLR | 39.2 | 32.9 | 78% | 35 | 30.16 | 0.0 | ||||||
| 01 | 06:15 | SW 8 | 10.00 | Fair | CLR | 38.5 | 32.9 | 80% | 33 | 30.15 | 0.0 | ||||||
| 01 | 05:55 | SW 8 | 10.00 | Fair | CLR | 38.3 | 33.1 | 41.9 | 37.2 | 82% | 33 | 30.14 | 0.0 | ||||
| 01 | 05:35 | SW 8 | 10.00 | Fair | CLR | 37.9 | 33.3 | 83% | 33 | 30.15 | 0.0 | ||||||
| 01 | 05:15 | SW 8 | 10.00 | Fair | CLR | 37.9 | 33.8 | 85% | 33 | 30.15 | 0.0 | ||||||
| 01 | 04:55 | SW 9 | 10.00 | Fair | CLR | 38.5 | 34.5 | 86% | 33 | 30.16 | 0.0 | ||||||
| 01 | 04:35 | SW 9 | 10.00 | Fair | CLR | 37.9 | 34.7 | 88% | 32 | 30.16 | 0.0 | ||||||
| 01 | 04:15 | SW 10 | 10.00 | Fair | CLR | 37.8 | 34.5 | 88% | 31 | 30.16 | 0.0 | ||||||
| 01 | 03:55 | SW 9 | 10.00 | Fair | CLR | 37.6 | 34.7 | 89% | 32 | 30.16 | 0.0 | ||||||
| 01 | 03:35 | SW 9 | 10.00 | Fair | CLR | 37.4 | 34.2 | 88% | 31 | 30.16 | 0.0 | ||||||
| 01 | 03:15 | SW 9 | 10.00 | Fair | CLR | 37.8 | 34.7 | 89% | 32 | 30.16 | 0.0 | ||||||
| 01 | 02:55 | SW 9 | 10.00 | Fair | CLR | 38.3 | 34.9 | 88% | 33 | 30.16 | 0.0 | ||||||
| 01 | 02:35 | SW 9 | 10.00 | Fair | CLR | 38.5 | 34.9 | 87% | 33 | 30.16 | 0.0 | ||||||
| 01 | 02:15 | SW 8 | 10.00 | Fair | CLR | 38.3 | 34.9 | 88% | 33 | 30.17 | 0.0 | ||||||
| 01 | 01:55 | SW 8 | 10.00 | Fair | CLR | 38.5 | 35.1 | 88% | 33 | 30.17 | 0.0 | ||||||
| 01 | 01:35 | SW 9 | 10.00 | Fair | CLR | 39.4 | 35.6 | 86% | 34 | 30.18 | 0.0 | ||||||
| 01 | 01:15 | SW 9 | 10.00 | Partly Cloudy | SCT120 | 39.9 | 35.8 | 85% | 34 | 30.19 | 0.0 | ||||||
| 01 | 00:55 | SW 8 | 10.00 | Partly Cloudy | SCT120 | 40.3 | 36.3 | 86% | 35 | 30.19 | 0.0 | ||||||
| 01 | 00:35 | SW 7 | 10.00 | Fair | CLR | 41 | 36.5 | 84% | 37 | 30.19 | 0.0 | ||||||
| 01 | 00:15 | SW 8 | 10.00 | Partly Cloudy | SCT080 SCT110 | 41.4 | 36.7 | 84% | 37 | 30.19 | 0.0 | ||||||
| 30 | 23:55 | SW 8 | 10.00 | Partly Cloudy | SCT120 | 41.9 | 36.7 | 48.2 | 41.9 | 82% | 37 | 30.19 | 0.0 | ||||
| 30 | 23:35 | SW 7 | 10.00 | Partly Cloudy | SCT120 | 43.2 | 36.7 | 78% | 40 | 30.19 | 0.0 | ||||||
| 30 | 23:15 | SW 7 | 10.00 | Mostly Cloudy | BKN075 BKN120 | 43.2 | 36.7 | 78% | 40 | 30.18 | 0.0 | ||||||
| 30 | 22:55 | SW 7 | 10.00 | Overcast | OVC075 | 44.4 | 37.4 | 76% | 41 | 30.18 | 0.0 | ||||||
| 30 | 22:35 | SW 7 | 10.00 | Overcast | OVC075 | 43.2 | 38.3 | 83% | 40 | 30.18 | 0.0 | ||||||
| 30 | 22:15 | S 6 | 10.00 | Overcast | OVC075 | 43.9 | 37.9 | 80% | 41 | 30.18 | 0.0 | ||||||
| 30 | 21:55 | S 5 | 10.00 | Overcast | OVC075 | 44.1 | 37.6 | 78% | 42 | 30.19 | 0.0 | ||||||
| 30 | 21:35 | S 6 | 10.00 | Overcast | OVC075 | 44.6 | 37 | 75% | 42 | 30.18 | 0.0 | ||||||
| 30 | 21:15 | SE 6 | 10.00 | Overcast | SCT030 OVC075 | 44.8 | 36.9 | 74% | 42 | 30.18 | 0.0 | ||||||
| 30 | 16:47 | E 9 | 10.00 | Partly Cloudy | SCT032 | 48.2 | 33.8 | 58% | 45 | 30.14 | 0.0 | ||||||
| 30 | 14:47 | E 10 | 10.00 | Mostly Cloudy | BKN029 | 46.4 | 33.8 | 62% | 42 | 30.16 | 0.0 | ||||||
| 30 | 13:47 | E 12 | 10.00 | Overcast | SCT019 OVC049 | 44.6 | 37.4 | 76% | 39 | 30.16 | 0.0 | ||||||
| 30 | 12:47 | E 12 | 10.00 | Overcast | OVC009 | 44.6 | 37.4 | 76% | 39 | 30.16 | 0.0 | ||||||
| 30 | 09:47 | Calm | 10.00 | Overcast | OVC029 | 42.8 | 35.6 | 76% | 30.17 | 0.0 | |||||||
| 30 | 08:47 | N 7 | 10.00 | Overcast | OVC031 | 42.8 | 33.8 | 71% | 39 | 30.17 | 0.0 | ||||||
| 30 | 07:47 | N 9 | 10.00 | Fair | CLR | 42.8 | 35.6 | 76% | 38 | 30.17 | 0.0 | ||||||
| 30 | 06:47 | NW 9 | 10.00 | Fair | CLR | 41 | 37.4 | 87% | 36 | 30.16 | 0.0 | ||||||
| 30 | 06:35 | W 6 | 10.00 | Overcast | SCT023 BKN032 OVC095 | 41.9 | 39.2 | 90% | 39 | 30.15 | 0.0 | ||||||
| 30 | 06:15 | W 6 | 10.00 | Light Drizzle | BKN023 BKN034 OVC080 | 41.9 | 39.2 | 90% | 39 | 30.14 | 0.0 | ||||||
| 30 | 05:55 | W 5 | 10.00 | Light Drizzle | SCT032 BKN037 OVC055 | 41.9 | 39.4 | 45.7 | 41.9 | 91% | 40 | 30.14 | 0.0 | ||||
| 30 | 05:35 | W 8 | 10.00 | Drizzle | OVC034 | 42.3 | 39.6 | 90% | 38 | 30.14 | 0.0 | ||||||
| 30 | 05:15 | W 8 | 10.00 | Overcast | OVC038 | 42.8 | 40.1 | 90% | 39 | 30.14 | 0.0 | ||||||
| 30 | 04:55 | W 6 | 10.00 | Overcast | BKN042 OVC070 | 43 | 39.4 | 87% | 40 | 30.14 | 0.0 | ||||||
| 30 | 04:35 | SW 7 | 10.00 | Overcast | OVC070 | 43 | 39.4 | 87% | 39 | 30.14 | 0.0 | ||||||
| 30 | 04:15 | S 7 | 10.00 | Overcast | BKN070 OVC080 | 43.2 | 39.6 | 87% | 40 | 30.14 | 0.0 | ||||||
| 30 | 03:55 | SW 8 | 10.00 | Overcast | SCT045 OVC060 | 43.7 | 39.4 | 85% | 40 | 30.14 | 0.0 | ||||||
| 30 | 03:35 | S 6 | 10.00 | Drizzle | BKN038 BKN046 OVC055 | 43.7 | 38.8 | 83% | 41 | 30.14 | 0.0 | ||||||
| 30 | 03:15 | S 7 | 10.00 | Drizzle | SCT030 OVC038 | 44.1 | 40.8 | 88% | 41 | 30.14 | 0.0 | ||||||
| 30 | 02:55 | S 6 | 10.00 | Rain | SCT029 BKN035 OVC043 | 44.6 | 41.5 | 89% | 42 | 30.14 | 0.0 | ||||||
| 30 | 02:35 | S 6 | 10.00 | Overcast | SCT043 OVC055 | 44.6 | 41.5 | 89% | 42 | 30.14 | 0.0 | ||||||
| 30 | 02:15 | S 5 | 10.00 | Overcast | BKN048 OVC055 | 44.6 | 41.9 | 90% | 43 | 30.14 | 0.0 | ||||||
| 30 | 01:55 | S 6 | 10.00 | Overcast | BKN048 OVC055 | 44.8 | 41.9 | 90% | 42 | 30.14 | 0.0 | ||||||
| 30 | 01:35 | S 6 | 10.00 | Overcast | SCT037 BKN050 OVC085 | 45 | 42.1 | 90% | 42 | 30.15 | 0.0 | ||||||
| 30 | 01:15 | S 5 | 10.00 | Light Drizzle | BKN031 BKN044 OVC070 | 45.5 | 42.3 | 89% | 44 | 30.16 | 0.0 | ||||||
| 30 | 00:55 | SE 3 | 10.00 | Light Rain | BKN029 OVC037 | 45.7 | 42.3 | 88% | 30.16 | 0.0 | |||||||
| 30 | 00:35 | SE 3 | 10.00 | Drizzle | SCT031 BKN040 OVC065 | 45.5 | 41.9 | 87% | 30.16 | 0.0 | |||||||
| 30 | 00:15 | E 3 | 10.00 | Overcast | SCT035 BKN048 OVC065 | 45.1 | 41.5 | 87% | 30.16 | 0.0 | |||||||
| 29 | 23:55 | SE 5 | 10.00 | Overcast | BKN037 OVC050 | 45 | 41.2 | 52.3 | 45 | 87% | 43 | 30.16 | 0.0 | ||||
| 29 | 23:35 | E 5 | 10.00 | Light Rain | BKN037 BKN048 OVC060 | 45.1 | 40.8 | 85% | 43 | 30.17 | 0.0 | ||||||
| 29 | 23:15 | NE 6 | 10.00 | Light Drizzle | SCT037 SCT060 OVC070 | 45.5 | 40.3 | 82% | 43 | 30.17 | 0.0 | ||||||
| 29 | 22:55 | NE 7 | 10.00 | Overcast | SCT048 BKN060 OVC070 | 46.4 | 40.8 | 81% | 43 | 30.17 | 0.0 | ||||||
| 29 | 22:35 | NE 14 | 10.00 | Overcast | SCT018 BKN060 OVC075 | 47.1 | 41.2 | 80% | 42 | 30.17 | 0.0 | ||||||
| 29 | 22:15 | NE 5 | 10.00 | Overcast | SCT050 BKN060 OVC075 | 49.1 | 36.3 | 62% | 48 | 30.16 | 0.0 | ||||||
| 29 | 21:55 | N 10 | 10.00 | Overcast | SCT055 BKN065 OVC090 | 48.6 | 36.7 | 64% | 45 | 30.16 | 0.0 | ||||||
| 29 | 21:35 | NW 3 | 10.00 | Overcast | SCT042 BKN065 OVC080 | 48 | 41.4 | 78% | 30.16 | 0.0 | |||||||
| 29 | 21:15 | NW 9 | 10.00 | Overcast | SCT042 BKN055 OVC080 | 48.7 | 40.8 | 74% | 45 | 30.15 | 0.0 | ||||||
| 29 | 20:47 | Calm | 10.00 | Fair | CLR | 51.8 | 42.8 | 72% | 30.06 | 0.0 | |||||||
| 29 | 15:47 | S 14 G 22 | 10.00 | Mostly Cloudy | BKN050 | 51.8 | 42.8 | 72% | 30.06 | 0.0 | |||||||
| 29 | 13:47 | NE 15 G 23 | 10.00 | Mostly Cloudy | BKN049 | 57.2 | 35.6 | 44% | 30.06 | 0.0 | |||||||
| 29 | 12:47 | N 10 | 10.00 | Light Rain | BKN039 | 57.2 | 37.4 | 48% | 30.08 | 0.0 | |||||||
| Date | Time (mdt) | Wind (mph) | Vis. (mi.) | Weather | Sky Cond. | Air | Dwpt | Max. | Min. | Relative Humidity | Wind Chill (°F) | Heat Index (°F) | altimeter (in) | sea level (mb) | 1 hr | 3 hr | 6 hr |
| 6 hour | |||||||||||||||||
| Temperature (ºF) | Pressure | Precipitation (in) | |||||||||||||||